This is the latest recevied weather packets stored in our database for station/object YB2YEN-13. If no packets are shown the sender has not sent any weather packets the latest 10 day(s).
| Time | Temp. | Humidity | Pressure | Rain* | Wind** | Luminosity | Snow |
|---|---|---|---|---|---|---|---|
| 1777782792 | 32.22° C | 82% | 978 hPa | - | - | 0 W/m² | - |
| 1777782469 | 31.11° C | 97% | 978 hPa | - | - | 0 W/m² | - |
| 1777782147 | 31.67° C | 89% | 978 hPa | - | - | 0 W/m² | - |
| 1777781825 | 32.22° C | 89% | 978 hPa | - | - | 0 W/m² | - |
| 1777781503 | 32.22° C | 81% | 978 hPa | - | - | 0 W/m² | - |
| 1777781181 | 32.78° C | 82% | 978 hPa | - | - | 0 W/m² | - |
| 1777780859 | 32.22° C | 86% | 978 hPa | - | - | 0 W/m² | - |
| 1777780538 | 32.22° C | 84% | 978 hPa | - | - | 0 W/m² | - |
| 1777780215 | 32.22° C | 75% | 978 hPa | - | - | 0 W/m² | - |
| 1777779893 | 32.78° C | 86% | 979 hPa | - | - | 0 W/m² | - |
| 1777779571 | 32.22° C | 85% | 979 hPa | - | - | 0 W/m² | - |
| 1777779249 | 32.22° C | 77% | 979 hPa | - | - | 0 W/m² | - |
| 1777778927 | 32.22° C | 82% | 979 hPa | - | - | 0 W/m² | - |
| 1777778606 | 32.78° C | 80% | 979 hPa | - | - | 0 W/m² | - |
| 1777778283 | 32.22° C | 81% | 979 hPa | - | - | 0 W/m² | - |
| 1777777961 | 32.22° C | 76% | 979 hPa | - | - | 0 W/m² | - |
| 1777777639 | 31.67° C | 84% | 979 hPa | - | - | 0 W/m² | - |
| 1777777318 | 32.22° C | 81% | 979 hPa | - | - | 0 W/m² | - |
| 1777776995 | 32.22° C | 86% | 979 hPa | - | - | 0 W/m² | - |
| 1777776673 | 31.11° C | 90% | 979 hPa | - | - | 0 W/m² | - |
| 1777776351 | 31.11° C | 86% | 979 hPa | - | - | 0 W/m² | - |
| 1777776029 | 31.11° C | 90% | 979 hPa | - | - | 0 W/m² | - |
| 1777775709 | 31.67° C | 91% | 979 hPa | - | - | 0 W/m² | - |
| 1777775385 | 31.11° C | 90% | 979 hPa | - | - | 0 W/m² | - |
| 1777775063 | 30.56° C | 99% | 979 hPa | - | - | 0 W/m² | - |
* Rain since midnight (hover to see other rain measurements)
** Current wind speed in m/s (hover to see current wind gust speed)